This demonstration page uses our WeatherBlox Daily Observations layout. Learn more.

Left ArrowRight Arrow

39.12711, -84.51439

Hourly Observations for March 19, 2021

Temp ( °F °C ) Dew Point ( °F °C ) Humidity (%) Winds ( mph kmh ) Pressure ( in mb ) Visibility ( mi km ) Precip ( " mm )
12:16 am 00:16 Cloudy 43 6.1 33 0.6 68 68 NNE 23 37 30.01 1016 10 16.0934 0 0
12:53 am 00:53 Cloudy 42 5.6 33 0.6 71 71 NNE 21 33 30.01 1016 10 16.0934 0 0
1:07 am 01:07 Cloudy 41 5 32 0 70 70 NNE 23 37 30.04 1017 10 16.0934 0 0
1:53 am 01:53 Cloudy 41 5 31 -0.6 67 67 NNE 17 28 30.04 1017 10 16.0934 0 0
2:03 am 02:03 Cloudy 41 5 31 -0.6 67 67 NNE 15 24 30.07 1018 10 16.0934 0 0
2:53 am 02:53 Cloudy 40 4.4 29 -1.7 65 65 NNE 23 37 30.08 1019 10 16.0934 0 0
3:53 am 03:53 Mostly Cloudy 38 3.3 27 -2.8 65 65 NNE 15 24 30.11 1020 10 16.0934 0 0
4:53 am 04:53 Clear 37 2.8 24 -4.4 59 59 NNE 24 39 30.15 1021 10 16.0934 0 0
5:53 am 05:53 Clear 35 1.7 22 -5.6 59 59 NNE 15 24 30.19 1023 10 16.0934 0 0
6:53 am 06:53 Clear 34 1.1 20 -6.7 56 56 NNE 17 28 30.24 1024 10 16.0934 0 0
7:53 am 07:53 Sunny 33 0.6 20 -6.7 58 58 NNE 13 20 30.28 1025 10 16.0934 0 0
8:53 am 08:53 Sunny 35 1.7 20 -6.7 54 54 NNE 15 24 30.32 1027 10 16.0934 0 0
9:53 am 09:53 Sunny 38 3.3 21 -6.1 51 51 NE 14 22 30.36 1028 10 16.0934 0 0
10:53 am 10:53 Sunny 41 5 20 -6.7 43 43 NE 18 30 30.37 1029 10 16.0934 0 0
11:53 am 11:53 Sunny 44 6.7 20 -6.7 38 38 NNE 18 30 30.39 1029 10 16.0934 0 0
12:53 pm 12:53 Sunny 47 8.3 20 -6.7 34 34 NE 18 30 30.4 1029 10 16.0934 0 0
1:53 pm 13:53 Sunny 48 8.9 23 -5 37 37 N 15 24 30.4 1030 10 16.0934 0 0
2:53 pm 14:53 Sunny 50 10 25 -3.9 38 38 NE 15 24 30.39 1029 10 16.0934 0 0
3:53 pm 15:53 Sunny 50 10 24 -4.4 36 36 NE 18 30 30.39 1029 10 16.0934 0 0
4:53 pm 16:53 Sunny 51 10.6 24 -4.4 35 35 NE 14 22 30.4 1029 10 16.0934 0 0
5:53 pm 17:53 Sunny 50 10 23 -5 35 35 NE 16 26 30.39 1029 10 16.0934 0 0
6:53 pm 18:53 Sunny 49 9.4 23 -5 36 36 NE 13 20 30.4 1030 10 16.0934 0 0
7:53 pm 19:53 Clear 45 7.2 23 -5 42 42 NE 12 19 30.42 1030 10 16.0934 0 0
8:53 pm 20:53 Clear 42 5.6 24 -4.4 49 49 NE 10 17 30.44 1031 10 16.0934 0 0
9:53 pm 21:53 Clear 42 5.6 24 -4.4 49 49 NNE 10 17 30.47 1032 10 16.0934 0 0
10:53 pm 22:53 Clear 39 3.9 24 -4.4 55 55 NNE 8 13 30.48 1032 10 16.0934 0 0
11:53 pm 23:53 Clear 37 2.8 24 -4.4 59 59 NNE 6 9 30.49 1032 10 16.0934 0 0

Powered by AerisWeather